PHMAS EGLF-LFBD

Flight info

Callsign PHMAS
Flight time N/A
Altitude 19000
Route GWC N859 SITET A34 LGL H20 BENAR A34 AMB B19 CNA
Aircraft PC12/L-SDFGRWY/S

Departure

Time 2026-04-25 17:26
Airport Farnborough Airport (EGLF)

Arrival

Time N/A
Airport Bordeaux–Mérignac Airport (LFBD)
Time Latitude Longitude Altitude Speed Heading
2026-04-25 17:16 51.28237 -0.76227 225 ft 0 kts 181°
2026-04-25 17:23 51.28232 -0.76227 225 ft 2 kts 170°
2026-04-25 17:24 51.28210 -0.76196 225 ft 7 kts 125°
2026-04-25 17:24 51.28164 -0.76144 226 ft 10 kts 171°
2026-04-25 17:24 51.28082 -0.76162 226 ft 14 kts 208°
2026-04-25 17:24 51.28032 -0.76275 229 ft 11 kts 240°
2026-04-25 17:25 51.27993 -0.76385 230 ft 15 kts 241°
2026-04-25 17:25 51.27898 -0.76677 227 ft 53 kts 243°
2026-04-25 17:25 51.27702 -0.77443 288 ft 86 kts 246°
2026-04-25 17:25 51.27362 -0.78313 438 ft 101 kts 244°
2026-04-25 17:26 51.27001 -0.79404 613 ft 124 kts 249°
2026-04-25 17:26 51.26456 -0.80634 866 ft 140 kts 224°
2026-04-25 17:26 51.25744 -0.81680 1291 ft 139 kts 224°
2026-04-25 17:26 51.25046 -0.82738 1699 ft 139 kts 224°
2026-04-25 17:27 51.24338 -0.83808 2093 ft 140 kts 224°
2026-04-25 17:27 51.23611 -0.84851 2479 ft 141 kts 213°
2026-04-25 17:27 51.22715 -0.85513 2854 ft 143 kts 204°
2026-04-25 17:27 51.22111 -0.85937 3116 ft 143 kts 204°
2026-04-25 17:28 51.20883 -0.86818 3542 ft 156 kts 205°
2026-04-25 17:28 51.19831 -0.87827 3354 ft 186 kts 228°
2026-04-25 17:28 51.19103 -0.89024 3974 ft 167 kts 227°